KCIN

Details ICAO KCIN
Name ARTHUR N NEU
Region United States
Timezone America/Chicago (UTC-5.0)
Plans Departing 1
Arriving 3
Stats Elevation 1,204 ft / 367 m (AMSL)
Location 42.046210° -94.789178°
Runways 2
Magnetic Variation 1.620° E
Sunrise 2018-05-25 10:51:28 UTC / 2018-05-25 05:51:28 Local
Sunset 2018-05-26 01:43:39 UTC / 2018-05-25 20:43:39 Local
Advertisement - Login to hide

Runways

ID Width Length Bearing (true) Bearing (mag) Surface Threshold Offset Overrun Length
03 125 ft / 38 m 2,607 ft / 795 m 35.27° 33.65° Grass 0 ft / 0 m 0 ft / 0 m
13 100 ft / 30 m 5,497 ft / 1,676 m 136.74° 135.12° Concrete 505 ft / 154 m 0 ft / 0 m
21 125 ft / 38 m 2,607 ft / 795 m 215.27° 213.65° Grass 0 ft / 0 m 0 ft / 0 m
31 100 ft / 30 m 5,497 ft / 1,676 m 316.75° 315.13° Concrete 0 ft / 0 m 0 ft / 0 m

Map

Weather


0- 5 10 15 20 25 30 35+ Temperature / ° C

Clouds and Precipitation
Forecast for 2018-05-25 06:00 UTC. Updated 3 hours ago

Ground ~20,000 ft ~40,000 ft Winds

METAR

KCIN 250735Z AUTO 20012KT 10SM CLR 22/17 A2989 RMK AO2

TAF

Not found

Frequencies

Recorded 118.02 MHz AWOS 3
Unicom 122.80 MHz CTAF/UNICOM
Warning: Do not use this data for real-world aviation or navigation. No guarantee of current accuracy is given.